Simultaneous Nadir Overpasses (SNOs) Predictions

Prediction of SNOs between GOES-16 and METOP-B Satellite Orbit:

Table of predicted SNOs for the next 14.0 days since TLE Epoch: 5/28/2022
Index Date Time (GOES-16) GOES-16 Lat,Lon METOP-B Lat,Lon Distance(km) Time Diff (sec)
1 05/29/2022 02:46:52 -0.05, -75.18 -0.99, -79.37 476.78 80
2 05/30/2022 02:28:53 -0.05, -75.19 0.16, -74.38 92.24 80
3 05/31/2022 14:45:04 0.04, -75.20 0.90, -78.93 426.07 80
4 06/01/2022 14:27:06 0.04, -75.21 -0.24, -73.95 143.15 80
5 06/03/2022 02:46:07 -0.03, -75.20 -0.78, -78.55 381.90 80
6 06/04/2022 02:22:48 -0.03, -75.20 0.31, -73.55 187.64 80
7 06/05/2022 14:41:40 0.02, -75.23 0.68, -78.12 329.62 80
8 06/06/2022 14:23:42 0.02, -75.24 -0.47, -73.14 240.41 80
9 06/08/2022 02:42:42 -0.02, -75.24 -0.60, -77.72 283.27 80
10 06/09/2022 02:19:23 -0.02, -75.26 0.55, -72.74 287.12 80
11 06/10/2022 14:38:15 0.02, -75.29 0.49, -77.30 229.06 80
